Weather History for Saratoga Shively Field Airpor, WY

Change the Weather History Date:

Wednesday, July 23, 2014

  Actual Average Record
Temperature  
Mean Temperature 73 °F -  
Max Temperature 95 °F 81 °F 95 °F (2014)
Min Temperature 51 °F 50 °F 51 °F (2014)
Cooling Degree Days 8    
Growing Degree Days 23 (Base 50)    
Moisture  
Dew Point 36 °F    
Average Humidity 27    
Maximum Humidity 62    
Minimum Humidity 9    
Precipitation  
Precipitation 0.00 in - - ()
Sea Level Pressure  
Sea Level Pressure 30.37 in    
Wind  
Wind Speed 10 mph (SSE)    
Max Wind Speed 18 mph    
Max Gust Speed 29 mph    
Visibility 10 miles    
Events      
Averages and records for this station are not official NWS values.
T = Trace of Precipitation, MM = Missing Value Source: NWS Daily Summary

Daily Weather History Graph

Daily Weather History Graph

Search for Another Location

Airport:

Trip Planner

Search our weather history database for the weather conditions in past years. The results will help you decide how hot, cold, wet, or windy it might be!

Date:

Astronomy

Jul. 23, 2014 Rise Set
Actual Time 5:53 AM MDT 8:33 PM MDT
Civil Twilight 5:21 AM MDT 9:05 PM MDT
Nautical Twilight 4:41 AM MDT 9:45 PM MDT
Astronomical Twilight 3:55 AM MDT 10:30 PM MDT
Moon 3:15 AM MDT (7/23) 6:04 PM MDT (7/23)
Length of Visible Light 15h 43m
Length of Day
14h 39m
Waning Crescent, 9% of the Moon is Illuminated
Jul 23
Waning Crescent
Jul 26
New
Aug 3
First Quarter
Aug 10
Full
Aug 17
Last Quarter

Hourly Weather History & Observations

Time (MDT) Temp. Dew Point Humidity Pressure Visibility Wind Dir Wind Speed Gust Speed Precip Events Conditions
12:35 AM 62.6 °F 33.8 °F 34% 30.40 in 10.0 mi South 8.1 mph - N/A   Clear
12:55 AM 66.2 °F 35.6 °F 32% 30.40 in 10.0 mi SSE 11.5 mph 18.4 mph N/A   Clear
1:17 AM 66.2 °F 37.4 °F 35% 30.40 in 10.0 mi SE 9.2 mph 16.1 mph N/A   Clear
1:35 AM 64.4 °F 39.2 °F 40% 30.41 in 10.0 mi SE 11.5 mph 18.4 mph N/A   Clear
1:55 AM 64.4 °F 37.4 °F 37% 30.40 in 10.0 mi South 11.5 mph - N/A   Clear
2:15 AM 64.4 °F 39.2 °F 40% 30.40 in 10.0 mi SSE 12.7 mph - N/A   Clear
2:35 AM 66.2 °F 41.0 °F 40% 30.40 in 10.0 mi SSE 16.1 mph - N/A   Clear
2:55 AM 66.2 °F 41.0 °F 40% 30.40 in 10.0 mi SSE 15.0 mph 21.9 mph N/A   Clear
3:15 AM 66.2 °F 39.2 °F 37% 30.40 in 10.0 mi SE 16.1 mph - N/A   Clear
3:35 AM 64.4 °F 37.4 °F 37% 30.39 in 10.0 mi SE 9.2 mph - N/A   Clear
3:55 AM 66.2 °F 37.4 °F 35% 30.39 in 10.0 mi SE 13.8 mph - N/A   Clear
4:15 AM 68.0 °F 37.4 °F 33% 30.39 in 10.0 mi SE 15.0 mph - N/A   Clear
4:35 AM 55.4 °F 41.0 °F 58% 30.40 in 10.0 mi NE 4.6 mph - N/A   Clear
4:55 AM 55.4 °F 41.0 °F 58% 30.40 in 10.0 mi Calm Calm - N/A   Clear
5:15 AM 64.4 °F 37.4 °F 37% 30.40 in 10.0 mi SE 12.7 mph - N/A   Clear
5:35 AM 62.6 °F 37.4 °F 39% 30.41 in 10.0 mi Calm Calm - N/A   Clear
5:55 AM 51.8 °F 39.2 °F 62% 30.42 in 10.0 mi North 4.6 mph - N/A   Clear
6:15 AM 53.6 °F 37.4 °F 54% 30.42 in 10.0 mi NNW 5.8 mph - N/A   Clear
6:35 AM 53.6 °F 37.4 °F 54% 30.42 in 10.0 mi Calm Calm - N/A   Clear
6:55 AM 57.2 °F 39.2 °F 51% 30.42 in 10.0 mi Calm Calm - N/A   Clear
7:15 AM 60.8 °F 41.0 °F 48% 30.42 in 10.0 mi ESE 3.5 mph - N/A   Clear
7:35 AM 64.4 °F 42.8 °F 45% 30.42 in 10.0 mi Calm Calm - N/A   Clear
7:55 AM 68.0 °F 42.8 °F 40% 30.43 in 10.0 mi ESE 4.6 mph - N/A   Clear
8:15 AM 73.4 °F 41.0 °F 31% 30.44 in 10.0 mi SSE 12.7 mph 18.4 mph N/A   Clear
8:35 AM 77.0 °F 41.0 °F 28% 30.44 in 10.0 mi SE 12.7 mph 16.1 mph N/A   Clear
8:55 AM 77.0 °F 41.0 °F 28% 30.44 in 10.0 mi SE 12.7 mph 17.3 mph N/A   Clear
9:15 AM 78.8 °F 42.8 °F 28% 30.43 in 10.0 mi SE 13.8 mph - N/A   Clear
9:35 AM 78.8 °F 41.0 °F 26% 30.43 in 10.0 mi ESE 11.5 mph 17.3 mph N/A   Clear
9:55 AM 82.4 °F 41.0 °F 23% 30.43 in 10.0 mi ESE 12.7 mph - N/A   Clear
10:15 AM 82.4 °F 42.8 °F 25% 30.43 in 10.0 mi ESE 15.0 mph - N/A   Clear
10:35 AM 84.2 °F 42.8 °F 23% 30.42 in 10.0 mi East 11.5 mph - N/A   Clear
10:55 AM 86.0 °F 41.0 °F 20% 30.42 in 10.0 mi East 10.4 mph - N/A   Clear
11:15 AM 86.0 °F 41.0 °F 20% 30.41 in 10.0 mi East 6.9 mph - N/A   Clear
11:35 AM 87.8 °F 33.8 °F 15% 30.40 in 10.0 mi SE 6.9 mph - N/A   Clear
11:55 AM 87.8 °F 32.0 °F 14% 30.39 in 10.0 mi SW 3.5 mph - N/A   Clear
12:15 PM 89.6 °F 35.6 °F 15% 30.39 in 10.0 mi Calm Calm - N/A   Clear
12:35 PM 91.4 °F 32.0 °F 12% 30.38 in 10.0 mi South 8.1 mph - N/A   Clear
12:55 PM 89.6 °F 28.4 °F 11% 30.37 in 10.0 mi SSE 8.1 mph - N/A   Clear
1:15 PM 89.6 °F 28.4 °F 11% 30.37 in 10.0 mi SSW 6.9 mph - N/A   Clear
1:35 PM 91.4 °F 24.8 °F 9% 30.37 in 10.0 mi South 8.1 mph 16.1 mph N/A   Clear
1:55 PM 91.4 °F 26.6 °F 10% 30.36 in 10.0 mi Calm Calm - N/A   Clear
2:15 PM 95.0 °F 30.2 °F 10% 30.36 in 10.0 mi SW 17.3 mph 26.5 mph N/A   Clear
2:35 PM 93.2 °F 30.2 °F 11% 30.35 in 10.0 mi WSW 18.4 mph 28.8 mph N/A   Clear
2:55 PM 91.4 °F 28.4 °F 10% 30.35 in 10.0 mi SW 16.1 mph 20.7 mph N/A   Clear
3:15 PM 91.4 °F 28.4 °F 10% 30.34 in 10.0 mi SSW 12.7 mph 21.9 mph N/A   Clear
3:35 PM 93.2 °F 28.4 °F 10% 30.33 in 10.0 mi SW 16.1 mph 20.7 mph N/A   Clear
3:55 PM 91.4 °F 28.4 °F 10% 30.32 in 10.0 mi SSW 10.4 mph 18.4 mph N/A   Clear
4:15 PM 89.6 °F 30.2 °F 12% 30.32 in 10.0 mi WNW 12.7 mph 23.0 mph N/A   Clear
4:35 PM 91.4 °F 30.2 °F 11% 30.31 in 10.0 mi WSW 15.0 mph 20.7 mph N/A   Clear
4:55 PM 93.2 °F 30.2 °F 11% 30.31 in 10.0 mi SW 4.6 mph - N/A   Clear
5:15 PM 93.2 °F 28.4 °F 10% 30.30 in 10.0 mi West 13.8 mph 24.2 mph N/A   Clear
5:35 PM 91.4 °F 28.4 °F 10% 30.29 in 10.0 mi WSW 12.7 mph 17.3 mph N/A   Clear
5:55 PM 89.6 °F 28.4 °F 11% 30.29 in 10.0 mi WSW 5.8 mph 20.7 mph N/A   Clear
6:15 PM 89.6 °F 28.4 °F 11% 30.28 in 10.0 mi WSW 10.4 mph - N/A   Clear
6:35 PM 91.4 °F 30.2 °F 11% 30.28 in 10.0 mi WNW 10.4 mph 17.3 mph N/A   Clear
6:55 PM 89.6 °F 30.2 °F 12% 30.27 in 10.0 mi South 8.1 mph - N/A   Clear
7:35 PM 87.8 °F 32.0 °F 14% 30.27 in 10.0 mi SSW 13.8 mph 21.9 mph N/A   Clear
8:15 PM 84.2 °F 33.8 °F 16% 30.29 in 10.0 mi SSE 9.2 mph - N/A   Clear
8:35 PM 78.8 °F 42.8 °F 28% 30.29 in 10.0 mi SE 13.8 mph - N/A   Clear
8:55 PM 78.8 °F 41.0 °F 26% 30.29 in 10.0 mi SE 11.5 mph 18.4 mph N/A   Clear
9:15 PM 77.0 °F 41.0 °F 28% 30.30 in 10.0 mi SE 16.1 mph 23.0 mph N/A   Scattered Clouds
9:35 PM 78.8 °F 41.0 °F 26% 30.31 in 10.0 mi SE 18.4 mph 25.3 mph N/A   Clear
9:55 PM 77.0 °F 41.0 °F 28% 30.31 in 10.0 mi SE 18.4 mph 25.3 mph N/A   Clear
10:15 PM 77.0 °F 41.0 °F 28% 30.31 in 10.0 mi SSE 16.1 mph 24.2 mph N/A   Clear
10:35 PM 75.2 °F 41.0 °F 29% 30.31 in 10.0 mi SE 17.3 mph 23.0 mph N/A   Clear
10:55 PM 73.4 °F 41.0 °F 31% 30.31 in 10.0 mi SE 10.4 mph - N/A   Clear
11:15 PM 73.4 °F 41.0 °F 31% 30.31 in 10.0 mi SSE 13.8 mph - N/A   Clear
11:35 PM 71.6 °F 41.0 °F 33% 30.32 in 10.0 mi SSE 10.4 mph - N/A   Clear
11:55 PM 71.6 °F 39.2 °F 31% 30.32 in 10.0 mi SSE 12.7 mph - N/A   Clear